Weather History for KAYS - June, 2013

Change the Weather History Date:

Sunday, June 23, 2013

  Actual Average (KAMG) Record (KAMG)
Temperature  
Mean Temperature 83 °F 81 °F  
Max Temperature 93 °F 91 °F 100 °F (1998)
Min Temperature 73 °F 70 °F 57 °F (1972)
Degree Days  
Heating Degree Days 0 0  
Month to date heating degree days 0  
Since 1 June heating degree days 0  
Since 1 July heating degree days 1659  
Cooling Degree Days 18 16  
Month to date cooling degree days 330  
Year to date cooling degree days 760  
Since 1 June cooling degree days 330  
Growing Degree Days 33 (Base 50)    
Moisture  
Dew Point 74 °F    
Average Humidity 80    
Maximum Humidity 100    
Minimum Humidity 52    
Precipitation  
Precipitation 0.00 in 0.19 in 1.79 in (1973)
Month to date precipitation 4.10  
Year to date precipitation 22.19  
Snow  
Snow 0.00 in 0.00 in 0.00 in ()
Month to date snowfall 0.0  
Since 1 June snowfall 0.0  
Since 1 July snowfall 0.1  
Snow Depth -    
Sea Level Pressure  
Sea Level Pressure 30.13 in    
Wind  
Wind Speed 1 mph (South)    
Max Wind Speed 14 mph    
Max Gust Speed 17 mph    
Visibility 8 miles    
Events      
T = Trace of Precipitation, MM = Missing Value Source: NWS Daily Summary

Daily Weather History Graph

Daily Weather History Graph

Search for Another Location

Airport or City:

Trip Planner

Search our weather history database for the weather conditions in past years. The results will help you decide how hot, cold, wet, or windy it might be!

Date:

Astronomy

Jun. 23, 2013 Rise Set
Actual Time 6:26 AM EDT 8:37 PM EDT
Civil Twilight 5:58 AM EDT 9:05 PM EDT
Nautical Twilight 5:24 AM EDT 9:39 PM EDT
Astronomical Twilight 4:47 AM EDT 10:16 PM EDT
Moon 8:53 PM EDT (6/23) 6:38 AM EDT (6/23)
Length of Visible Light 15h 06m
Length of Day
14h 10m
Full, 100% of the Moon is Illuminated
Jun 23
Full
Jun 30
Last Quarter
Jul 8
New
Jul 15
First Quarter
Jul 22
Full

Hourly Weather History & Observations

Time (EDT) Temp. Heat Index Dew Point Humidity Pressure Visibility Wind Dir Wind Speed Gust Speed Precip Events Conditions
12:15 AM 73.4 °F - 73.4 °F 100% 30.13 in 7.0 mi Calm Calm - N/A   Clear
12:35 AM 73.4 °F - 73.4 °F 100% 30.13 in 10.0 mi Calm Calm - N/A   Clear
12:55 AM 73.4 °F - 73.4 °F 100% 30.13 in 7.0 mi Calm Calm - N/A   Clear
1:15 AM 73.4 °F - 73.4 °F 100% 30.13 in 7.0 mi Calm Calm - N/A   Clear
1:35 AM 73.4 °F - 73.4 °F 100% 30.13 in 5.0 mi Calm Calm - N/A   Scattered Clouds
1:55 AM 73.4 °F - 73.4 °F 100% 30.13 in 7.0 mi Calm Calm - N/A   Scattered Clouds
2:15 AM 73.4 °F - 73.4 °F 100% 30.13 in 7.0 mi Calm Calm - N/A   Mostly Cloudy
2:35 AM 73.4 °F - 73.4 °F 100% 30.12 in 7.0 mi East 3.5 mph - N/A   Scattered Clouds
2:55 AM 73.4 °F - 73.4 °F 100% 30.12 in 7.0 mi Calm Calm - N/A   Scattered Clouds
3:15 AM 73.4 °F - 73.4 °F 100% 30.11 in 5.0 mi Calm Calm - N/A   Scattered Clouds
3:35 AM 73.4 °F - 73.4 °F 100% 30.11 in 5.0 mi Calm Calm - N/A   Scattered Clouds
3:55 AM 73.4 °F - 73.4 °F 100% 30.11 in 5.0 mi Calm Calm - N/A   Mostly Cloudy
4:15 AM 73.4 °F - 73.4 °F 100% 30.11 in 5.0 mi Calm Calm - N/A   Mostly Cloudy
4:35 AM 73.4 °F - 73.4 °F 100% 30.11 in 5.0 mi Calm Calm - N/A   Mostly Cloudy
4:55 AM 73.4 °F - 73.4 °F 100% 30.11 in 5.0 mi Calm Calm - N/A   Mostly Cloudy
5:15 AM 73.4 °F - 73.4 °F 100% 30.12 in 4.0 mi Calm Calm - N/A   Overcast
5:35 AM 73.4 °F - 73.4 °F 100% 30.11 in 5.0 mi Calm Calm - N/A   Scattered Clouds
5:55 AM 73.4 °F - 73.4 °F 100% 30.12 in 3.0 mi Calm Calm - N/A   Clear
6:15 AM 73.4 °F - 73.4 °F 100% 30.13 in 1.5 mi Calm Calm - N/A   Mostly Cloudy
6:35 AM 73.4 °F - 73.4 °F 100% 30.13 in 4.0 mi Calm Calm - N/A   Scattered Clouds
6:55 AM 73.4 °F - 73.4 °F 100% 30.13 in 7.0 mi Calm Calm - N/A   Clear
7:15 AM 75.2 °F - 73.4 °F 94% 30.13 in 7.0 mi Calm Calm - N/A   Scattered Clouds
7:35 AM 75.2 °F - 75.2 °F 100% 30.14 in 7.0 mi Calm Calm - N/A   Overcast
7:55 AM 75.2 °F - 75.2 °F 100% 30.14 in 3.0 mi ESE 3.5 mph - N/A   Overcast
8:15 AM 75.2 °F - 75.2 °F 100% 30.15 in 3.0 mi Calm Calm - N/A   Overcast
8:35 AM 77.0 °F - 75.2 °F 94% 30.15 in 7.0 mi Calm Calm - N/A   Mostly Cloudy
8:55 AM 78.8 °F - 77.0 °F 94% 30.16 in 10.0 mi Calm Calm - N/A   Scattered Clouds
9:15 AM 78.8 °F - 77.0 °F 94% 30.16 in 10.0 mi Calm Calm - N/A   Scattered Clouds
9:35 AM 80.6 °F 87.1 °F 77.0 °F 89% 30.16 in 10.0 mi Calm Calm - N/A   Clear
9:55 AM 82.4 °F 90.9 °F 77.0 °F 84% 30.16 in 10.0 mi Calm Calm - N/A   Scattered Clouds
10:15 AM 82.4 °F 90.9 °F 77.0 °F 84% 30.16 in 10.0 mi WSW 4.6 mph - N/A   Scattered Clouds
10:35 AM 82.4 °F 89.5 °F 75.2 °F 79% 30.17 in 10.0 mi Calm Calm - N/A   Scattered Clouds
10:55 AM 84.2 °F 92.3 °F 75.2 °F 74% 30.17 in 10.0 mi Calm Calm - N/A   Scattered Clouds
11:15 AM 87.8 °F 97.6 °F 75.2 °F 66% 30.17 in 10.0 mi South 3.5 mph - N/A   Scattered Clouds
11:35 AM 87.8 °F 97.6 °F 75.2 °F 66% 30.18 in 10.0 mi WSW 4.6 mph - N/A   Clear
11:55 AM 87.8 °F 97.6 °F 75.2 °F 66% 30.18 in 10.0 mi SSE 3.5 mph - N/A   Scattered Clouds
12:15 PM 89.6 °F 99.8 °F 75.2 °F 62% 30.18 in 10.0 mi South 4.6 mph - N/A   Scattered Clouds
12:35 PM 87.8 °F 95.6 °F 73.4 °F 62% 30.17 in 10.0 mi Calm Calm - N/A   Clear
12:55 PM 89.6 °F 98.2 °F 73.4 °F 59% 30.16 in 10.0 mi Calm Calm - N/A   Clear
1:15 PM 89.6 °F 99.8 °F 75.2 °F 62% 30.15 in 10.0 mi SSW 4.6 mph - N/A   Clear
1:35 PM 89.6 °F 99.8 °F 75.2 °F 62% 30.14 in 10.0 mi SSW 3.5 mph - N/A   Clear
1:55 PM 89.6 °F 99.8 °F 75.2 °F 62% 30.14 in 10.0 mi Calm Calm - N/A   Mostly Cloudy
2:15 PM 89.6 °F 99.8 °F 75.2 °F 62% 30.14 in 10.0 mi Calm Calm - N/A   Scattered Clouds
2:35 PM 89.6 °F 98.2 °F 73.4 °F 59% 30.13 in 10.0 mi Calm Calm - N/A   Scattered Clouds
2:55 PM 91.4 °F 100.1 °F 73.4 °F 55% 30.12 in 10.0 mi SE 3.5 mph - N/A   Clear
3:15 PM 91.4 °F 100.1 °F 73.4 °F 55% 30.11 in 10.0 mi SE 3.5 mph - N/A   Scattered Clouds
3:35 PM 93.2 °F 102.4 °F 73.4 °F 52% 30.10 in 10.0 mi SE 4.6 mph - N/A   Clear
3:55 PM 93.2 °F 102.4 °F 73.4 °F 52% 30.10 in 10.0 mi WSW 8.1 mph - N/A   Clear
4:15 PM 91.4 °F 100.1 °F 73.4 °F 55% 30.09 in 10.0 mi Calm Calm - N/A   Clear
4:35 PM 93.2 °F 102.4 °F 73.4 °F 52% 30.09 in 10.0 mi WSW 4.6 mph - N/A   Clear
4:55 PM 93.2 °F 102.4 °F 73.4 °F 52% 30.09 in 10.0 mi SW 4.6 mph - N/A   Clear
5:15 PM 91.4 °F 100.1 °F 73.4 °F 55% 30.09 in 10.0 mi SW 4.6 mph - N/A   Clear
5:35 PM 91.4 °F 100.1 °F 73.4 °F 55% 30.09 in 10.0 mi Calm Calm - N/A   Clear
5:55 PM 93.2 °F 102.4 °F 73.4 °F 52% 30.08 in 10.0 mi SW 4.6 mph - N/A   Clear
6:15 PM 91.4 °F 100.1 °F 73.4 °F 55% 30.08 in 10.0 mi SW 3.5 mph - N/A   Clear
6:35 PM 91.4 °F 100.1 °F 73.4 °F 55% 30.08 in 10.0 mi SW 3.5 mph - N/A   Clear
6:55 PM 91.4 °F 102.5 °F 75.2 °F 59% 30.10 in 10.0 mi East 13.8 mph 17.3 mph N/A   Clear
7:15 PM 86.0 °F 93.4 °F 73.4 °F 66% 30.12 in 10.0 mi East 13.8 mph - N/A   Scattered Clouds
7:35 PM 84.2 °F 90.9 °F 73.4 °F 70% 30.13 in 10.0 mi East 10.4 mph - N/A   Scattered Clouds
7:55 PM 82.4 °F 88.2 °F 73.4 °F 74% 30.13 in 10.0 mi ESE 8.1 mph - N/A   Clear
8:15 PM 82.4 °F 88.2 °F 73.4 °F 74% 30.13 in 10.0 mi SE 6.9 mph 16.1 mph N/A   Clear
8:35 PM 80.6 °F 84.6 °F 71.6 °F 74% 30.14 in 10.0 mi SE 5.8 mph - N/A   Clear
8:55 PM 80.6 °F 84.6 °F 71.6 °F 74% 30.13 in 10.0 mi Calm Calm - N/A   Clear
9:15 PM 78.8 °F - 73.4 °F 83% 30.13 in 10.0 mi SSE 3.5 mph - N/A   Clear
9:35 PM 78.8 °F - 73.4 °F 83% 30.13 in 10.0 mi SSE 4.6 mph - N/A   Clear
9:55 PM 78.8 °F - 73.4 °F 83% 30.14 in 10.0 mi Calm Calm - N/A   Clear
10:15 PM 78.8 °F - 73.4 °F 83% 30.15 in 10.0 mi Calm Calm - N/A   Clear
10:35 PM 78.8 °F - 75.2 °F 89% 30.15 in 10.0 mi Calm Calm - N/A   Clear
10:55 PM 78.8 °F - 73.4 °F 83% 30.16 in 10.0 mi Calm Calm - N/A   Clear
11:15 PM 78.8 °F - 73.4 °F 83% 30.16 in 10.0 mi Calm Calm - N/A   Clear
11:35 PM 78.8 °F - 73.4 °F 83% 30.16 in 10.0 mi Calm Calm - N/A   Clear
11:55 PM 78.8 °F - 73.4 °F 83% 30.17 in 10.0 mi Calm Calm - N/A   Clear